Wind_Speed
7 8 9 10 11 12 13 13 13 13 14 14 14 15 15 13 12 12 12 12 12 13 13 14 14 14 14 14 15 15 15 14 15 14 14 16 17 20 21 23 24 26 27 27
8 9 10 10 12 13 13 14 14 14 15 15 15 15 14 13 13 13 12 13 13 13 13 14 14 14 14 14 15 16 16 16 17 17 17 18 19 20 21 23 24 25 25 25
11 11 12 12 12 12 13 14 15 15 16 17 16 16 15 14 13 13 14 14 14 14 13 13 13 14 15 15 16 17 17 17 18 18 18 19 20 20 22 22 22 23 24 25
14 14 14 14 14 14 14 14 15 15 16 16 17 15 15 14 14 15 15 15 15 15 15 14 14 15 16 17 18 19 19 19 19 19 19 19 20 21 21 22 22 23 23 23
16 16 16 15 16 17 16 16 16 16 16 16 15 14 14 15 15 16 15 15 15 16 16 16 17 18 18 19 19 20 20 20 20 21 21 21 21 22 22 23 24 25 25 26
18 18 18 18 18 18 18 18 18 18 17 16 16 15 15 16 17 17 16 16 17 17 18 19 20 20 21 20 21 21 21 21 22 22 23 23 24 24 24 25 26 27 28 29
19 20 19 20 20 20 20 20 19 19 19 18 17 18 18 18 18 18 18 19 20 20 21 22 22 22 22 22 23 23 23 24 24 25 25 25 25 25 26 27 28 28 29 31
21 21 20 21 22 22 22 21 21 21 21 21 20 20 20 20 20 20 21 21 22 23 24 24 24 24 24 24 25 25 25 25 25 25 25 25 25 25 26 27 28 28 29 30
23 22 22 22 23 24 24 24 24 23 23 23 22 22 22 22 23 23 24 24 25 26 26 26 26 26 26 26 26 26 27 26 26 26 27 27 27 27 28 28 29 29 29 30
25 24 24 25 25 26 27 26 26 25 24 24 23 24 24 24 25 26 26 27 27 28 28 28 28 28 28 28 28 28 27 27 27 27 28 28 28 29 29 29 30 29 30 30
27 26 27 26 27 27 28 27 27 26 26 25 25 25 26 26 27 28 28 28 29 29 29 29 30 30 30 30 29 29 29 28 28 28 28 28 29 29 29 30 30 30 30 31
29 28 29 27 28 29 29 28 27 27 27 27 27 27 28 28 29 29 30 30 30 30 30 30 31 31 31 31 30 30 29 29 29 29 29 29 29 30 30 31 32 33 33 34
32 31 31 30 29 30 30 29 29 29 29 29 29 29 30 30 31 31 32 32 32 31 32 32 32 32 32 31 31 30 30 30 30 31 31 31 31 31 31 32 33 34 34 35
33 33 32 31 30 30 31 30 30 30 30 30 30 30 31 32 32 33 33 33 32 32 33 33 32 32 32 32 32 31 31 31 31 32 32 33 33 33 33 33 34 35 35 36
34 34 33 32 31 32 31 31 31 31 31 32 32 32 33 33 33 32 32 32 32 32 33 33 33 33 32 32 32 32 32 32 32 33 33 34 34 35 35 35 35 35 36 37
34 34 34 34 33 33 33 32 32 32 33 33 34 34 34 33 33 32 31 31 32 32 32 32 32 32 32 32 33 32 32 33 33 34 34 35 35 35 35 35 36 36 36 37
34 34 35 34 35 35 34 33 34 34 34 34 35 35 34 34 33 32 32 32 32 32 32 33 33 32 32 33 33 33 33 33 34 34 35 35 35 35 36 36 36 37 37 38
34 34 34 34 34 34 34 33 33 34 35 35 35 35 34 34 33 33 33 33 33 32 33 34 34 33 33 33 33 33 34 34 34 35 35 36 36 36 37 37 38 38 39 40
33 33 33 33 33 33 33 33 33 34 35 35 35 34 34 34 34 34 34 34 34 34 34 34 34 34 34 34 34 34 35 35 35 36 36 37 37 37 38 39 39 40 40 41
33 34 34 34 33 33 33 34 34 35 35 35 35 35 35 35 35 34 34 35 35 35 35 35 35 34 34 34 35 35 36 36 36 37 37 38 38 38 39 40 41 41 42 43
33 33 33 33 33 33 33 34 34 35 35 35 35 35 35 35 35 36 36 36 36 36 36 36 35 35 35 35 35 36 36 37 37 37 38 39 39 40 40 41 41 42 42 43
33 33 33 34 34 33 33 34 34 35 35 35 35 35 36 36 36 37 37 37 37 37 37 36 36 36 36 36 36 37 37 37 37 38 38 39 40 40 41 41 41 42 42 42
34 34 34 34 34 34 34 34 34 34 35 35 35 35 35 36 36 36 36 37 37 37 37 37 37 37 37 37 37 38 38 38 38 38 38 39 40 40 40 41 41 41 41 40
36 35 35 34 34 34 34 33 34 34 34 34 34 34 35 35 35 36 36 36 36 36 36 36 37 37 37 38 38 38 38 38 38 38 38 39 39 39 39 39 39 39 39 38
36 36 35 34 34 34 34 34 33 34 34 34 34 34 34 35 35 35 35 36 36 36 36 36 36 37 37 37 37 37 37 38 38 38 38 38 38 38 38 38 38 37 37 37
37 36 35 35 35 35 35 35 35 35 35 35 34 34 35 35 35 35 35 35 35 34 35 35 36 36 36 37 37 37 37 37 37 37 37 37 37 37 38 38 37 36 36 37
37 36 35 35 36 36 36 36 35 35 35 35 36 35 35 35 35 35 35 35 35 35 35 35 35 35 35 35 35 35 36 36 36 37 37 36 36 37 37 37 36 35 35 35
Wind_Direction
289 287 286 282 282 284 287 290 292 292 293 294 294 294 293 292 293 292 290 292 296 298 296 296 297 299 302 296 291 288 286 282 280 278 276 270 267 267 266 267 268 266 264 265
287 288 289 289 288 286 286 288 290 291 293 293 294 292 289 287 289 287 288 291 294 297 299 297 296 296 298 301 297 293 291 287 283 281 277 274 273 271 269 268 270 269 268 270
286 286 289 292 291 291 291 290 291 291 291 290 292 290 286 285 286 285 285 287 293 296 299 299 296 295 297 300 299 295 292 289 285 281 278 276 276 274 272 270 272 273 271 271
287 285 287 290 289 291 292 293 294 295 293 291 292 289 285 283 283 285 286 287 289 291 293 295 296 296 297 296 296 293 292 291 288 284 280 279 280 279 279 277 277 277 273 274
289 288 288 286 287 289 290 291 293 294 292 292 292 287 285 284 284 285 286 288 289 290 292 295 296 296 297 298 298 297 293 290 288 286 282 281 281 281 282 281 280 280 279 278
289 289 289 288 288 288 289 290 292 292 291 291 289 285 285 285 285 285 285 288 290 292 293 296 297 297 296 295 296 297 295 291 288 286 284 283 283 282 282 282 282 282 281 282
288 289 288 286 288 288 288 290 290 290 289 288 286 282 282 283 284 283 284 287 289 292 294 295 296 296 296 295 295 294 293 290 287 285 284 284 285 285 285 284 283 283 282 282
285 288 288 285 285 285 286 287 288 288 287 286 284 281 281 282 281 281 284 287 289 291 293 294 295 295 295 296 295 294 294 291 288 285 284 283 283 284 285 285 284 284 285 285
283 285 286 285 283 283 284 285 285 284 284 284 281 280 279 280 281 282 284 287 289 291 292 293 293 294 294 294 294 294 295 293 290 288 287 285 284 283 284 285 285 285 286 286
280 281 281 282 281 282 281 282 282 281 281 281 280 279 279 280 281 282 284 286 288 290 291 291 292 292 293 293 293 294 294 293 291 289 287 286 285 285 284 285 286 287 287 287
281 280 279 280 280 281 281 281 279 279 279 280 279 278 279 280 281 283 284 286 288 289 290 290 291 291 291 291 292 293 293 291 290 290 289 288 286 287 287 287 288 288 288 288
280 279 279 279 279 279 279 279 279 278 278 279 278 278 279 280 282 284 285 286 288 288 289 289 290 291 291 291 291 292 292 291 290 290 290 288 288 288 289 290 290 290 289 289
279 278 278 280 281 281 280 279 278 278 279 280 279 278 280 281 283 284 285 286 286 287 289 290 290 291 290 290 290 290 290 291 291 291 290 289 289 289 290 291 292 292 291 290
278 278 278 280 280 280 279 277 278 279 279 280 280 281 282 283 283 284 285 286 286 287 288 289 290 290 290 289 289 289 290 291 292 291 291 290 290 291 291 291 292 292 292 292
278 278 279 279 279 279 278 277 278 279 279 280 280 281 282 283 283 284 285 285 286 287 287 289 289 289 289 288 289 289 290 291 291 291 291 291 292 292 291 292 292 292 292 293
277 278 279 279 280 279 278 277 277 279 280 281 281 282 282 283 284 284 284 284 286 287 288 289 289 289 288 287 288 288 289 290 291 291 292 291 292 292 291 292 292 292 293 293
277 279 279 279 279 279 278 277 278 279 281 282 282 283 283 283 284 284 284 284 286 287 288 289 289 288 288 288 287 287 287 289 290 291 292 292 292 292 292 292 292 292 293 293
278 278 279 279 279 279 278 278 278 279 281 283 283 283 283 283 284 284 284 284 285 286 288 288 288 288 288 288 288 287 287 288 290 291 292 292 292 292 292 292 293 293 294 295
277 277 279 281 281 281 280 278 278 279 281 282 283 283 282 282 282 282 283 284 285 286 287 287 287 287 287 287 288 288 288 288 290 291 292 292 292 292 292 292 293 294 294 295
277 277 279 281 282 281 280 279 279 280 281 282 282 283 282 282 281 281 283 283 284 285 286 286 286 287 287 287 287 288 288 289 289 290 291 292 292 292 292 293 293 294 295 296
277 278 280 282 282 281 280 280 281 281 282 283 283 283 283 283 282 282 283 283 284 284 284 285 285 285 286 287 287 288 289 289 290 290 291 292 292 292 292 293 294 295 296 297
278 278 280 282 282 282 281 282 282 282 283 283 283 284 284 284 284 284 284 284 284 284 284 285 284 284 284 285 286 288 289 290 290 291 292 292 292 293 293 293 294 295 297 297
279 279 281 282 283 283 283 283 283 284 285 285 285 285 285 286 286 286 285 285 285 285 285 284 284 283 283 285 286 287 289 290 290 291 292 293 293 294 294 294 294 295 297 298
278 278 280 282 283 283 284 284 285 285 286 286 286 286 287 287 287 287 286 286 286 286 286 285 284 283 284 285 287 288 289 290 290 291 293 294 294 295 295 295 295 296 297 298
277 277 278 280 281 283 283 284 285 286 287 287 287 287 287 287 288 288 288 287 287 287 286 285 285 285 285 286 287 288 289 290 291 292 293 294 295 295 295 296 296 296 296 297
277 277 278 279 280 282 283 283 284 286 286 287 288 289 288 288 288 288 288 288 288 287 287 286 286 285 286 286 287 288 289 290 292 293 294 295 295 295 295 295 295 295 296 296
276 277 278 278 279 281 282 283 284 285 286 287 288 289 289 289 288 287 287 288 288 288 288 288 287 287 287 287 288 289 290 291 292 294 294 295 295 295 295 295 295 295 295 296
Height
5671 5670 5669 5668 5667 5665 5664 5663 5662 5661 5659 5658 5655 5653 5652 5650 5648 5647 5646 5644 5642 5640 5638 5636 5634 5632 5630 5628 5626 5624 5622 5621 5620 5619 5619 5618 5617 5617 5616 5616 5617 5617 5616 5616
5669 5667 5666 5665 5664 5662 5660 5659 5658 5656 5655 5653 5651 5649 5647 5646 5644 5643 5642 5640 5639 5637 5635 5632 5630 5628 5626 5624 5622 5620 5618 5617 5615 5615 5614 5613 5612 5611 5611 5610 5610 5609 5608 5608
5667 5665 5663 5663 5661 5658 5657 5655 5653 5652 5651 5648 5646 5644 5643 5641 5640 5638 5637 5636 5634 5632 5631 5628 5626 5624 5622 5620 5618 5615 5614 5612 5611 5609 5608 5608 5607 5605 5604 5603 5602 5601 5601 5600
5662 5662 5660 5661 5657 5655 5653 5651 5649 5647 5645 5643 5641 5639 5638 5637 5635 5634 5633 5631 5630 5628 5626 5624 5622 5620 5618 5616 5613 5611 5609 5606 5605 5603 5602 5601 5600 5599 5597 5596 5595 5594 5593 5592
5658 5656 5655 5656 5653 5650 5649 5648 5645 5643 5641 5639 5637 5635 5634 5632 5630 5629 5628 5626 5625 5623 5621 5619 5617 5614 5612 5610 5608 5605 5603 5601 5599 5597 5596 5595 5593 5592 5590 5589 5588 5586 5585 5584
5653 5650 5650 5651 5647 5644 5644 5643 5641 5638 5636 5634 5632 5631 5630 5628 5626 5624 5623 5621 5619 5618 5615 5613 5611 5608 5606 5604 5601 5599 5597 5594 5592 5591 5589 5587 5586 5584 5583 5581 5580 5578 5576 5575
5647 5645 5645 5644 5641 5640 5639 5638 5635 5633 5631 5629 5627 5626 5625 5623 5621 5619 5617 5616 5614 5612 5609 5607 5604 5602 5599 5597 5594 5592 5589 5587 5584 5582 5581 5579 5577 5576 5574 5572 5571 5569 5567 5565
5641 5640 5641 5637 5635 5634 5633 5630 5628 5626 5625 5623 5621 5619 5618 5616 5615 5613 5612 5610 5608 5605 5603 5600 5597 5595 5592 5589 5586 5584 5581 5578 5575 5573 5572 5570 5569 5567 5565 5563 5561 5559 5557 5555
5636 5637 5633 5630 5628 5626 5625 5623 5622 5620 5618 5616 5615 5613 5611 5610 5608 5607 5605 5603 5601 5598 5596 5593 5590 5587 5584 5582 5578 5575 5572 5569 5566 5565 5563 5562 5560 5558 5556 5554 5552 5550 5547 5545
5628 5628 5625 5623 5620 5619 5617 5615 5614 5612 5611 5609 5607 5605 5604 5602 5600 5599 5597 5595 5593 5590 5587 5585 5582 5579 5575 5572 5570 5567 5564 5560 5558 5556 5554 5553 5551 5549 5547 5545 5543 5540 5538 5535
5619 5619 5616 5615 5612 5611 5609 5607 5606 5604 5603 5601 5599 5597 5596 5594 5592 5590 5588 5585 5583 5580 5577 5575 5572 5569 5566 5563 5560 5557 5554 5552 5549 5547 5545 5543 5541 5539 5537 5535 5533 5530 5528 5526
5610 5609 5607 5606 5604 5602 5600 5599 5597 5596 5594 5592 5590 5589 5587 5585 5583 5580 5578 5575 5572 5570 5567 5564 5561 5559 5556 5553 5550 5547 5545 5542 5540 5538 5536 5534 5532 5530 5527 5525 5522 5520 5517 5515
5599 5598 5596 5596 5594 5592 5591 5590 5588 5587 5585 5583 5581 5579 5577 5575 5573 5570 5567 5564 5562 5559 5556 5554 5551 5548 5545 5543 5540 5538 5535 5533 5531 5529 5527 5525 5522 5520 5518 5516 5512 5510 5507 5504
5589 5587 5587 5586 5584 5582 5581 5580 5578 5577 5575 5573 5571 5569 5567 5565 5562 5559 5556 5553 5551 5548 5545 5543 5540 5538 5535 5533 5530 5528 5526 5524 5522 5520 5517 5515 5513 5510 5508 5505 5503 5499 5496 5493
5578 5576 5576 5575 5574 5572 5570 5569 5568 5567 5565 5562 5560 5558 5556 5553 5551 5548 5545 5542 5539 5537 5534 5532 5530 5527 5525 5523 5521 5519 5516 5514 5512 5510 5508 5505 5503 5500 5497 5495 5492 5489 5486 5482
5567 5566 5564 5564 5563 5562 5560 5559 5558 5556 5554 5552 5549 5547 5544 5542 5539 5536 5534 5531 5529 5526 5524 5521 5519 5517 5514 5513 5511 5509 5507 5504 5502 5500 5498 5495 5493 5490 5487 5484 5481 5478 5475 5471
5556 5555 5553 5553 5551 5550 5549 5548 5546 5545 5543 5541 5538 5536 5533 5530 5528 5526 5523 5521 5518 5516 5514 5511 5509 5506 5504 5503 5501 5499 5497 5495 5492 5490 5487 5485 5482 5479 5476 5473 5470 5467 5463 5460
5544 5543 5542 5541 5540 5539 5537 5536 5535 5534 5532 5529 5527 5524 5522 5520 5518 5515 5513 5511 5509 5506 5504 5501 5499 5496 5494 5492 5490 5489 5487 5485 5483 5480 5477 5475 5472 5469 5466 5463 5459 5456 5452 5448
5533 5532 5531 5530 5529 5527 5526 5525 5523 5522 5520 5518 5516 5513 5511 5509 5507 5505 5503 5501 5498 5496 5494 5491 5488 5486 5484 5482 5480 5478 5476 5474 5472 5469 5467 5464 5461 5458 5454 5451 5448 5444 5440 5436
5522 5521 5520 5519 5518 5517 5515 5513 5512 5511 5509 5507 5505 5502 5500 5498 5496 5494 5492 5490 5487 5485 5483 5480 5478 5476 5474 5472 5470 5468 5466 5463 5461 5458 5455 5453 5449 5446 5443 5439 5436 5432 5428 5423
5511 5510 5509 5508 5507 5505 5504 5502 5501 5499 5498 5496 5493 5491 5489 5487 5485 5483 5481 5479 5476 5474 5472 5470 5467 5465 5463 5461 5459 5457 5454 5452 5449 5447 5444 5441 5438 5434 5431 5427 5423 5419 5415 5411
5501 5500 5498 5497 5496 5495 5493 5491 5490 5488 5486 5484 5482 5480 5478 5476 5474 5471 5469 5467 5465 5462 5460 5458 5456 5454 5452 5450 5448 5446 5443 5440 5438 5435 5432 5429 5425 5422 5418 5414 5410 5406 5402 5398
5490 5489 5488 5487 5485 5484 5482 5481 5479 5477 5475 5473 5471 5469 5466 5464 5462 5460 5458 5455 5453 5450 5448 5446 5444 5442 5440 5438 5436 5434 5431 5429 5426 5423 5420 5416 5413 5409 5405 5402 5398 5394 5390 5386
5478 5477 5476 5475 5474 5472 5471 5469 5468 5466 5464 5462 5460 5457 5455 5453 5451 5448 5446 5443 5441 5438 5436 5434 5432 5430 5428 5426 5424 5422 5419 5417 5414 5411 5407 5404 5400 5397 5393 5390 5386 5382 5378 5374
5466 5465 5464 5463 5462 5461 5459 5458 5456 5454 5452 5451 5449 5446 5444 5442 5439 5437 5434 5432 5429 5427 5425 5422 5420 5418 5416 5414 5412 5410 5407 5404 5401 5399 5395 5392 5388 5385 5381 5378 5374 5370 5367 5363
5453 5453 5452 5451 5450 5449 5447 5446 5444 5443 5441 5439 5437 5435 5433 5430 5428 5426 5423 5421 5418 5416 5414 5411 5409 5407 5405 5402 5400 5398 5395 5392 5389 5386 5383 5380 5376 5373 5369 5366 5362 5359 5356 5352
5441 5440 5439 5439 5438 5437 5435 5434 5432 5431 5429 5427 5425 5423 5421 5418 5416 5414 5412 5410 5407 5405 5403 5400 5398 5396 5393 5391 5388 5386 5383 5380 5378 5374 5371 5368 5365 5361 5358 5354 5351 5348 5344 5341